Lake Lanier Weather Center

Moon Phase Calendar



Lake Lanier Water Level
Online Cameras

 


      

Current Conditions in Olde Federal Pointe
6/24/2024 8:39:52 AM

77°F
Feels Like 79
Clear
Humidity
88%
Pressure
29.88"
Wind
5.8 mph (W)
Dew Point
74°F
UV Index
2/10 (Low)
Visibility
6 mi

Hourly Forecast

Date & Time Mon, Jun 24
8:00 AM
Mon, Jun 24
9:00 AM
Mon, Jun 24
10:00 AM
Mon, Jun 24
11:00 AM
Mon, Jun 24
12:00 PM
Mon, Jun 24
1:00 PM
Mon, Jun 24
2:00 PM
Mon, Jun 24
3:00 PM
Mon, Jun 24
4:00 PM
Mon, Jun 24
5:00 PM
Mon, Jun 24
6:00 PM
Mon, Jun 24
7:00 PM
Mon, Jun 24
8:00 PM
Mon, Jun 24
9:00 PM
Mon, Jun 24
10:00 PM
Mon, Jun 24
11:00 PM
Tue, Jun 25
12:00 AM
Tue, Jun 25
1:00 AM
Tue, Jun 25
2:00 AM
Tue, Jun 25
3:00 AM
Tue, Jun 25
4:00 AM
Tue, Jun 25
5:00 AM
Tue, Jun 25
6:00 AM
Tue, Jun 25
7:00 AM
Tue, Jun 25
8:00 AM
Tue, Jun 25
9:00 AM
Tue, Jun 25
10:00 AM
Tue, Jun 25
11:00 AM
Tue, Jun 25
12:00 PM
Tue, Jun 25
1:00 PM
Tue, Jun 25
2:00 PM
Tue, Jun 25
3:00 PM
Tue, Jun 25
4:00 PM
Tue, Jun 25
5:00 PM
Tue, Jun 25
6:00 PM
Tue, Jun 25
7:00 PM
Tue, Jun 25
8:00 PM
Tue, Jun 25
9:00 PM
Tue, Jun 25
10:00 PM
Tue, Jun 25
11:00 PM
Wed, Jun 26
12:00 AM
Wed, Jun 26
1:00 AM
Wed, Jun 26
2:00 AM
Wed, Jun 26
3:00 AM
Wed, Jun 26
4:00 AM
Wed, Jun 26
5:00 AM
Wed, Jun 26
6:00 AM
Wed, Jun 26
7:00 AM
Condition
Clouds

Clear

Clear

Clear

Clouds

Clouds

Clouds

Clear

Clear

Clear

Clear

Clear

Clear

Clear

Clear

Clear

Clear

Clear

Clear

Clear

Clear

Clear

Clear

Clear

Clear

Clear

Clear

Clear

Clear

Clear

Clear

Clear

Clear

Clear

Clear

Clear

Clear

Clear

Clear

Clear

Clear

Clear

Clear

Clouds

Clear

Clear

Clouds

Clouds
Temperature 78°F78°F79°F82°F85°F89°F94°F95°F94°F93°F91°F88°F82°F76°F75°F73°F70°F68°F66°F66°F65°F65°F64°F65°F70°F77°F81°F85°F88°F91°F94°F94°F95°F95°F94°F92°F84°F79°F76°F74°F73°F73°F72°F71°F70°F69°F69°F69°F
Feels Like 79°F80°F79°F86°F88°F90°F92°F92°F92°F91°F90°F86°F82°F76°F75°F72°F69°F67°F66°F65°F64°F64°F64°F64°F70°F76°F81°F84°F87°F90°F92°F92°F92°F92°F91°F91°F84°F78°F76°F74°F73°F73°F72°F70°F70°F69°F68°F69°F
Cloudiness 12%0%4%9%13%20%22%0%0%0%0%0%0%0%0%0%0%0%0%0%0%1%3%3%3%0%0%0%0%0%0%0%0%0%0%0%0%0%0%0%1%7%7%15%10%10%13%30%
Visibility 6 mi6 mi6 mi6 mi6 mi6 mi6 mi6 mi6 mi6 mi6 mi6 mi6 mi6 mi6 mi6 mi6 mi6 mi6 mi6 mi6 mi6 mi6 mi6 mi6 mi6 mi6 mi6 mi6 mi6 mi6 mi6 mi6 mi6 mi6 mi6 mi6 mi6 mi6 mi6 mi6 mi6 mi6 mi6 mi6 mi6 mi6 mi6 mi
Precipitation 0%0%0%0%0%0%0%0%0%0%0%0%0%0%0%0%0%0%0%0%0%0%0%0%0%0%0%0%0%0%0%0%0%0%0%0%0%0%0%0%0%0%0%0%0%0%0%0%
Humidity 86%87%80%70%56%42%28%26%26%27%30%35%43%49%45%46%53%57%61%63%63%63%62%65%61%49%40%37%34%30%27%25%24%24%25%35%46%45%51%58%59%58%58%58%59%61%62%65%
Dew Point 73°F74°F73°F71°F68°F63°F56°F55°F54°F54°F56°F57°F57°F56°F53°F51°F52°F52°F53°F53°F52°F52°F51°F53°F56°F56°F55°F56°F56°F56°F55°F54°F53°F53°F54°F61°F61°F56°F57°F59°F58°F58°F57°F56°F55°F55°F55°F57°F
Pressure 29.88"29.88"29.88"29.88"29.88"29.88"29.85"29.85"29.83"29.83"29.83"29.83"29.85"29.88"29.88"29.91"29.91"29.91"29.94"29.91"29.91"29.94"29.94"29.94"29.97"29.97"29.97"29.97"29.97"29.97"29.94"29.91"29.88"29.88"29.88"29.85"29.85"29.88"29.91"29.91"29.91"29.91"29.91"29.91"29.91"29.91"29.91"29.88"
Wind Speed 6 mph8.2 mph9.7 mph9.6 mph9.5 mph9.2 mph10.7 mph11.8 mph12.4 mph12.8 mph11.7 mph10.9 mph8.6 mph6.9 mph8.3 mph6 mph4.8 mph4.4 mph3.8 mph3.8 mph4.2 mph4.1 mph3.6 mph3.1 mph2.7 mph2.6 mph4.4 mph5.4 mph4.6 mph3.6 mph3 mph3.9 mph4.1 mph3.9 mph3.4 mph2.9 mph1.7 mph2.3 mph4.8 mph4.4 mph3 mph3.7 mph5.4 mph4.3 mph3.8 mph4.4 mph4.1 mph3.6 mph
Wind
Direction
285°
WNW
313°
NW
322°
NW
325°
NW
327°
NNW
332°
NNW
332°
NNW
335°
NNW
333°
NNW
330°
NNW
329°
NNW
331°
NNW
337°
NNW
332°
NNW
338°
NNW
344°
NNW
349°
N
356°
N

N

N
354°
N
349°
N
356°
N

N

N
33°
NNE
74°
ENE
74°
ENE
79°
E
82°
E
84°
E
86°
E
93°
E
92°
E
100°
E
125°
SE
146°
SE
317°
NW
335°
NNW
358°
N

N
26°
NNE
54°
NE
25°
NNE
44°
NE
45°
NE
36°
NE
21°
NNE

Daily Forecast

Date High Low Precip. Humidity
Today
Jun 24

Rain
95 °F
72 °F
74%
42%
Tuesday
Jun 25

Clear
95 °F
64 °F
0%
30%
Wednesday
Jun 26

Rain
98 °F
69 °F
41%
27%
Thursday
Jun 27

Rain
86 °F
68 °F
47%
56%
Friday
Jun 28

Rain
93 °F
69 °F
20%
38%
Saturday
Jun 29

Rain
93 °F
71 °F
100%
46%
Sunday
Jun 30

Rain
96 °F
71 °F
99%
39%
Monday
Jul 1

Rain
96 °F
71 °F
100%
42%
Tuesday
Jul 2

Rain
82 °F
67 °F
80%
71%
Wednesday
Jul 3

Rain
91 °F
70 °F
91%
60%
Thursday
Jul 4

Clouds
97 °F
74 °F
54%
35%
Friday
Jul 5

Clouds
98 °F
77 °F
0%
34%
Saturday
Jul 6

Rain
100 °F
73 °F
46%
35%
Sunday
Jul 7

Clouds
98 °F
71 °F
0%
35%
Monday
Jul 8

Clouds
98 °F
76 °F
0%
34%
Tuesday
Jul 9

Rain
93 °F
74 °F
99%
45%

Temperature 8-14 Day Outlook



Precipitation 8-14 Day Outlook






About Us
Contact Us
Site Map
Search Site
Advertise With Us
   
www.DiscoverLanier.com
THE LAKE LANIER WEBSITE

Copyright 2024, Lakes Online
Privacy    |    Legal